Regional Weather Roundup
Issued by NWS Lake Charles, LA

Current Version | Previous Version | Text Only | Print | Product List | Glossary On
Versions: 1 2 3 4 5 6 7 8 9 10 11 12 13 14 15 16 17 18 19 20 21 22 23 24 25 26 27 28 29 30 31 32 33 34 35 36 37 38 39 40 41 42 43 44 45 46 47 48 49 50
000
ASUS44 KLCH 190610
RWRLCH
REGIONAL WEATHER ROUNDUP
NATIONAL WEATHER SERVICE LAKE CHARLES LA
100 AM CDT FRI JUL 19 2019

Note: "fair" indicates few or no clouds below 12,000 feet with no
significant weather and/or obstructions to visibility.


ACROSS SOUTHEAST TEXAS

CITY           SKY/WX    TMP DP  RH WIND       PRES   REMARKS
BEAUMONT       FAIR      80  76  87 CALM      30.01S
BEAUMONT CITY  NOT AVBL
ORANGE         FAIR      82  78  90 S5        30.03S
JASPER         FAIR      79  76  91 CALM      30.04S
$$

ACROSS CENTRAL LOUISIANA

CITY           SKY/WX    TMP DP  RH WIND       PRES   REMARKS
LEESVILLE      FAIR      78  74  88 S6        30.01F
FULLERTON      FAIR      78  75  90 VRB3      30.00F
ALEXANDRIA INT FAIR      77  76  96 S6        30.00F
ESLER FIELD    FAIR      79  76  90 S5        30.02S
DERIDDER       FAIR      78  77  95 CALM      30.04F
OAKDALE        FAIR     N/A N/A N/A CALM      30.03S FOG
OPELOUSAS      FAIR      77  76  95 CALM      30.04S
$$

ACROSS SOUTHWEST AND SOUTH CENTRAL LOUISIANA

CITY           SKY/WX    TMP DP  RH WIND       PRES   REMARKS
DEQUINCY       FAIR      76  74  93 CALM      30.03S
SULPHUR        FAIR      81  77  89 S5        30.03S
LAKE CHARLES   FAIR      80  77  90 CALM      30.02F
CHENNAULT INT  FAIR      78  77  95 E7        30.02F
CAMERON PHI    NOT AVBL
GRAND CHENIER  NOT AVBL
JENNINGS       FAIR      80  76  90 SE3       30.02F
LAFAYETTE      FAIR      79  78  97 CALM      30.03F
NEW IBERIA     FAIR      78  78 100 S3        30.03F
ABBEVILLE      FAIR     N/A N/A N/A CALM      30.03F
PATTERSON      FAIR      78  77  96 CALM      30.04F
SALT POINT       N/A     82  77  84 MISG      30.02F
$$

SELECTED SITES ACROSS THE REGION

CITY           SKY/WX    TMP DP  RH WIND       PRES   REMARKS
HOUSTON BUSH   PTCLDY    82  74  76 S6        30.00S
HOUSTON HOBBY  FAIR      81  74  79 S6        29.99S
GALVESTON      FAIR      85  77  77 S13       30.01F
COLLEGE STAT   CLEAR     81  74  79 S9        29.99R
CONROE         CLEAR     79  75  87 S5        30.00F
HUNTSVILLE     CLEAR     80  73  79 S6        30.00S
LUFKIN         CLEAR     77  75  93 S7        30.00S
SHREVEPORT     PTCLDY    81  75  82 S9        29.98S
MONROE         FAIR      81  77  88 S5        30.01S
NATCHEZ MS     FAIR      77  75  93 S6        30.04F
BATON ROUGE    FAIR      79  76  90 S3        30.04S
N.O. INTL ARPT FAIR      81  75  82 SW3       30.04F
SLIDELL        FAIR      80  75  84 CALM      30.04F
$$

MARINE REPORTS

STATION/POSITION TIME  SKY/WX   TEMP    WIND        PRES    VSBY
                                AIR SEA DIR/SP/G
                 (UTC)          (F)     (DEG/KT/KT) (MB)    (MI)
BUOY 30 S HIGH I 0550            85 85  170/ 14/ 16 1016.6F
WVE H/P(F/S)=  2/ 4

SEA RIM ST PARK  NOT AVBL
PORT ARTHUR      0512            83 86  180/  5/  9 1016.8
SABINE PASS N    0512            83 88  170/  7/  9 1017.9
TEXAS POINT      0530            83 87  170/ 13/ 15 1014.7S
CALCASIEU PASS   0530            84 85  190/ 11/ 16 1015.6F
LK CHARLES BEACH 0530            81 83              1016.4F
MARSH ISLAND     0500            84                   N/A
FRESH WATER LOCK NOT AVBL
AMERADA PASS     0530            81 84   CALM  /  4 1017.2F
$$



USA.gov is the U.S. government's official web portal to all federal, state and local government web resources and services.